When you browse on this site, cookies collect data to enhance your experience and personalize the content and advertising you see.
Visit our Privacy Policy to learn more. By continuing to use the site, you agree to this use of cookies and data.
  • In Hungary
  • List of Countries
  • For 7 days
  • Water Temperature
  • Satellite Maps
  • Weather Map
  • News
  • Weather Widgets
  • user-avatar
    Login

    Hourly Weather Milik

    Today, 19 December, Wednesday

    Time Temperature Precipitation Wind Pressure Humidity
    00:00 -4°C° 0 mm 1 mps 726 mmHg 93%
    01:00 -4°C° 0 mm 1 mps 726 mmHg 92%
    02:00 -4°C° 0 mm 1 mps 725 mmHg 92%
    03:00 -6°C° 0 mm 1 mps 725 mmHg 91%
    04:00 -6°C° 0 mm 1 mps 725 mmHg 90%
    05:00 -6°C° 0 mm 1 mps 725 mmHg 90%
    06:00 -6°C° 0 mm 1 mps 725 mmHg 89%
    07:00 -7°C° 0 mm 1 mps 725 mmHg 88%
    08:00 -4°C° 0 mm 1 mps 725 mmHg 85%
    09:00 -3°C° 0 mm 1 mps 725 mmHg 81%
    10:00 -4°C° 0 mm 2 mps 725 mmHg 77%
    11:00 -3°C° 0 mm 2 mps 725 mmHg 76%
    12:00 -2°C° 0 mm 2 mps 725 mmHg 76%
    13:00 -1°C° 0 mm 2 mps 725 mmHg 75%
    14:00 -3°C° 0 mm 2 mps 724 mmHg 80%
    15:00 -4°C° 0 mm 2 mps 724 mmHg 84%
    16:00 -5°C° 0 mm 2 mps 723 mmHg 89%
    17:00 -5°C° 0 mm 2 mps 723 mmHg 89%
    18:00 -5°C° 0 mm 2 mps 723 mmHg 89%
    19:00 -7°C° 0 mm 3 mps 723 mmHg 89%
    20:00 -7°C° 0 mm 3 mps 723 mmHg 88%
    21:00 -7°C° 0 mm 3 mps 723 mmHg 88%
    22:00 -7°C° 0 mm 3 mps 723 mmHg 87%
    23:00 -7°C° 0 mm 3 mps 722 mmHg 86%

    Tomorrow, 20 December, Thursday

    Time Temperature Precipitation Wind Pressure Humidity
    00:00 -7°C° 0 mm 3 mps 722 mmHg 85%
    01:00 -7°C° 0 mm 3 mps 722 mmHg 84%
    02:00 -6°C° 0 mm 3 mps 722 mmHg 84%
    03:00 -6°C° 0 mm 3 mps 722 mmHg 83%
    04:00 -6°C° 0 mm 3 mps 722 mmHg 82%
    05:00 -6°C° 0 mm 3 mps 721 mmHg 83%
    06:00 -6°C° 0 mm 3 mps 721 mmHg 84%
    07:00 -6°C° 0 mm 3 mps 721 mmHg 85%
    08:00 -6°C° 0 mm 3 mps 721 mmHg 84%
    09:00 -5°C° 0 mm 3 mps 721 mmHg 83%
    10:00 -4°C° 0 mm 3 mps 722 mmHg 82%
    11:00 -4°C° 0.1 mm 3 mps 721 mmHg 82%
    12:00 -4°C° 0.1 mm 3 mps 721 mmHg 83%
    13:00 -3°C° 0.1 mm 2 mps 721 mmHg 84%
    14:00 -3°C° 0.2 mm 2 mps 721 mmHg 86%
    15:00 -3°C° 0.2 mm 2 mps 721 mmHg 88%
    16:00 -4°C° 0.2 mm 2 mps 721 mmHg 90%
    17:00 -4°C° 0.2 mm 2 mps 721 mmHg 91%
    18:00 -4°C° 0.2 mm 2 mps 721 mmHg 91%
    19:00 -4°C° 0.2 mm 2 mps 721 mmHg 92%
    20:00 -4°C° 0.2 mm 2 mps 721 mmHg 92%
    21:00 -4°C° 0.2 mm 2 mps 722 mmHg 92%
    22:00 -4°C° 0.2 mm 2 mps 722 mmHg 92%
    23:00 -4°C° 0.1 mm 2 mps 722 mmHg 92%

    Day after tomorrow, 21 December, Friday

    Time Temperature Precipitation Wind Pressure Humidity
    00:00 -3°C° 0.1 mm 2 mps 722 mmHg 92%
    01:00 -3°C° 0.1 mm 2 mps 722 mmHg 92%
    02:00 -3°C° 0.1 mm 2 mps 722 mmHg 92%
    03:00 -3°C° 0.1 mm 2 mps 722 mmHg 92%
    04:00 -3°C° 0.1 mm 2 mps 721 mmHg 92%
    05:00 -4°C° 0 mm 2 mps 721 mmHg 92%
    06:00 -4°C° 0 mm 2 mps 721 mmHg 93%
    07:00 -4°C° 0 mm 2 mps 721 mmHg 93%
    08:00 -4°C° 0 mm 3 mps 721 mmHg 91%
    09:00 -2°C° 0 mm 3 mps 721 mmHg 89%
    10:00 -1°C° 0 mm 3 mps 721 mmHg 87%
    11:00 -1°C° 0.2 mm 3 mps 721 mmHg 87%
    12:00 -1°C° 0.2 mm 4 mps 720 mmHg 86%
    13:00 -1°C° 0.2 mm 4 mps 720 mmHg 86%
    14:00 -1°C° 0.1 mm 4 mps 719 mmHg 86%
    15:00 -1°C° 0.1 mm 4 mps 719 mmHg 86%
    16:00 -1°C° 0.1 mm 4 mps 718 mmHg 86%
    17:00 -1°C° 0.1 mm 5 mps 718 mmHg 86%
    18:00 -1°C° 0.1 mm 5 mps 717 mmHg 86%
    19:00 -1°C° 0.1 mm 5 mps 717 mmHg 86%
    20:00 -1°C° 0.3 mm 5 mps 716 mmHg 86%
    21:00 -1°C° 0.3 mm 5 mps 715 mmHg 86%
    22:00 -1°C° 0.3 mm 5 mps 715 mmHg 86%
    23:00 -1°C° 0.3 mm 5 mps 714 mmHg 87%

    22 December, Saturday

    Time Temperature Precipitation Wind Pressure Humidity
    00:00 -1°C° 0.3 mm 5 mps 714 mmHg 87%
    01:00 0°C° 0.3 mm 5 mps 713 mmHg 88%
    02:00 0°C° 0.2 mm 4 mps 713 mmHg 89%
    03:00 0°C° 0.2 mm 4 mps 713 mmHg 90%
    04:00 +1°C° 0.2 mm 3 mps 713 mmHg 91%
    05:00 +1°C° 0 mm 3 mps 713 mmHg 91%
    06:00 +1°C° 0 mm 3 mps 713 mmHg 91%
    07:00 +1°C° 0 mm 3 mps 713 mmHg 91%
    08:00 +1°C° 0 mm 3 mps 713 mmHg 91%
    09:00 +2°C° 0 mm 3 mps 714 mmHg 91%
    10:00 +2°C° 0 mm 3 mps 714 mmHg 91%
    11:00 +3°C° 0.2 mm 3 mps 713 mmHg 92%
    12:00 +3°C° 0.2 mm 3 mps 713 mmHg 92%
    13:00 +4°C° 0.2 mm 3 mps 712 mmHg 92%
    14:00 +3°C° 0.4 mm 3 mps 712 mmHg 92%
    15:00 +3°C° 0.4 mm 3 mps 712 mmHg 92%
    16:00 +3°C° 0.4 mm 3 mps 712 mmHg 92%
    17:00 +2°C° 0 mm 3 mps 712 mmHg 90%
    18:00 +1°C° 0 mm 4 mps 712 mmHg 89%
    19:00 +1°C° 0 mm 4 mps 712 mmHg 88%
    20:00 +1°C° 0.1 mm 4 mps 712 mmHg 88%
    21:00 +1°C° 0.1 mm 4 mps 713 mmHg 88%
    22:00 +1°C° 0.1 mm 4 mps 713 mmHg 88%
    23:00 +1°C° 0.1 mm 4 mps 713 mmHg 87%

    23 December, Sunday

    Time Temperature Precipitation Wind Pressure Humidity
    00:00 +1°C° 0.1 mm 4 mps 713 mmHg 86%
    01:00 +1°C° 0.1 mm 5 mps 713 mmHg 85%
    02:00 +1°C° 0 mm 5 mps 714 mmHg 85%
    03:00 +1°C° 0 mm 5 mps 714 mmHg 84%
    04:00 -1°C° 0 mm 6 mps 715 mmHg 84%
    05:00 0°C° 0 mm 5 mps 715 mmHg 84%
    06:00 0°C° 0 mm 5 mps 716 mmHg 85%
    07:00 -1°C° 0 mm 4 mps 717 mmHg 86%
    08:00 0°C° 0 mm 4 mps 717 mmHg 86%
    09:00 +1°C° 0 mm 3 mps 718 mmHg 85%
    10:00 +1°C° 0 mm 3 mps 719 mmHg 85%
    11:00 +2°C° 0 mm 3 mps 719 mmHg 86%
    12:00 +3°C° 0 mm 2 mps 719 mmHg 86%
    13:00 +3°C° 0 mm 2 mps 719 mmHg 86%
    14:00 +3°C° 0.2 mm 2 mps 719 mmHg 88%
    15:00 +3°C° 0.2 mm 1 mps 719 mmHg 90%
    16:00 +2°C° 0.2 mm 1 mps 719 mmHg 93%
    17:00 +2°C° 0.3 mm 1 mps 719 mmHg 92%
    18:00 +2°C° 0.3 mm 1 mps 720 mmHg 92%
    19:00 +2°C° 0.3 mm 1 mps 720 mmHg 92%
    20:00 +2°C° 0.2 mm 1 mps 720 mmHg 91%
    21:00 -1°C° 0.2 mm 2 mps 720 mmHg 91%
    22:00 -1°C° 0.2 mm 2 mps 720 mmHg 90%
    23:00 -1°C° 0 mm 2 mps 720 mmHg 90%

    24 December, Monday

    Time Temperature Precipitation Wind Pressure Humidity
    00:00 -1°C° 0 mm 2 mps 720 mmHg 90%
    01:00 -1°C° 0 mm 2 mps 720 mmHg 89%
    02:00 -1°C° 0 mm 2 mps 720 mmHg 89%
    03:00 -1°C° 0 mm 2 mps 720 mmHg 89%
    04:00 -1°C° 0 mm 2 mps 720 mmHg 89%
    05:00 -1°C° 0.1 mm 2 mps 720 mmHg 89%
    06:00 -1°C° 0.1 mm 2 mps 720 mmHg 89%
    07:00 -1°C° 0.1 mm 2 mps 719 mmHg 90%
    08:00 -1°C° 0.2 mm 2 mps 720 mmHg 88%
    09:00 +1°C° 0.2 mm 2 mps 720 mmHg 87%
    10:00 +2°C° 0.2 mm 2 mps 720 mmHg 85%
    11:00 +1°C° 0.4 mm 3 mps 720 mmHg 85%
    12:00 +1°C° 0.4 mm 3 mps 720 mmHg 86%
    13:00 +1°C° 0.4 mm 3 mps 720 mmHg 86%
    14:00 0°C° 0.1 mm 4 mps 720 mmHg 86%
    15:00 -1°C° 0.1 mm 4 mps 720 mmHg 86%
    16:00 -1°C° 0.1 mm 4 mps 721 mmHg 86%
    17:00 -2°C° 0.1 mm 4 mps 721 mmHg 87%
    18:00 -2°C° 0.1 mm 4 mps 722 mmHg 87%
    19:00 -2°C° 0.1 mm 4 mps 723 mmHg 88%
    20:00 -1°C° 0.1 mm 3 mps 723 mmHg 88%
    21:00 -1°C° 0.1 mm 3 mps 724 mmHg 89%
    22:00 -2°C° 0.1 mm 2 mps 724 mmHg 90%
    23:00 -2°C° 0 mm 2 mps 724 mmHg 90%
    Show more